Year,Month,Day,Hour,Minute,Value (Times are PST for temperature in C)
2018,08,10,00,00,19.70
2018,08,10,00,01,19.70
2018,08,10,00,02,19.70
2018,08,10,00,03,19.70
2018,08,10,00,04,19.70
2018,08,10,00,05,19.60
2018,08,10,00,06,19.60
2018,08,10,00,07,19.60
2018,08,10,00,08,19.60
2018,08,10,00,09,19.60
2018,08,10,00,10,19.50
2018,08,10,00,11,19.40
2018,08,10,00,12,19.40
2018,08,10,00,13,19.40
2018,08,10,00,14,19.40
2018,08,10,00,15,19.30
2018,08,10,00,16,19.30
2018,08,10,00,17,19.30
2018,08,10,00,18,19.30
2018,08,10,00,19,19.30
2018,08,10,00,20,19.30
2018,08,10,00,21,19.20
2018,08,10,00,22,19.20
2018,08,10,00,23,19.20
2018,08,10,00,24,19.20
2018,08,10,00,25,19.20
2018,08,10,00,26,19.20
2018,08,10,00,27,19.20
2018,08,10,00,28,19.20
2018,08,10,00,29,19.20
2018,08,10,00,30,19.20
2018,08,10,00,31,19.10
2018,08,10,00,32,19.10
2018,08,10,00,33,19.00
2018,08,10,00,34,19.00
2018,08,10,00,35,18.90
2018,08,10,00,36,18.90
2018,08,10,00,37,18.80
2018,08,10,00,38,18.70
2018,08,10,00,39,18.70
2018,08,10,00,40,18.60
2018,08,10,00,41,18.50
2018,08,10,00,42,18.40
2018,08,10,00,43,18.40
2018,08,10,00,44,18.30
2018,08,10,00,45,18.30
2018,08,10,00,46,18.30
2018,08,10,00,47,18.20
2018,08,10,00,48,18.20
2018,08,10,00,49,18.20
2018,08,10,00,50,18.20
2018,08,10,00,51,18.10
2018,08,10,00,52,18.10
2018,08,10,00,53,18.10
2018,08,10,00,54,18.10
2018,08,10,00,55,18.00
2018,08,10,00,56,18.00
2018,08,10,00,57,18.00
2018,08,10,00,58,17.90
2018,08,10,00,59,17.90
2018,08,10,01,00,17.90
2018,08,10,01,01,17.90
2018,08,10,01,02,17.80
2018,08,10,01,03,17.80
2018,08,10,01,04,17.80
2018,08,10,01,05,17.80
2018,08,10,01,06,17.70
2018,08,10,01,07,17.70
2018,08,10,01,08,17.70
2018,08,10,01,09,17.60
2018,08,10,01,10,17.60
2018,08,10,01,11,17.60
2018,08,10,01,12,17.50
2018,08,10,01,13,17.50
2018,08,10,01,14,17.50
2018,08,10,01,15,17.50
2018,08,10,01,16,17.50
2018,08,10,01,17,17.50
2018,08,10,01,18,17.40
2018,08,10,01,19,17.40
2018,08,10,01,20,17.40
2018,08,10,01,21,17.40
2018,08,10,01,22,17.40
2018,08,10,01,23,17.40
2018,08,10,01,24,17.40
2018,08,10,01,25,17.40
2018,08,10,01,26,17.40
2018,08,10,01,27,17.40
2018,08,10,01,28,17.40
2018,08,10,01,29,17.40
2018,08,10,01,30,17.40
2018,08,10,01,31,17.40
2018,08,10,01,32,17.40
2018,08,10,01,33,17.40
2018,08,10,01,34,17.40
2018,08,10,01,35,17.40
2018,08,10,01,36,17.40
2018,08,10,01,37,17.30
2018,08,10,01,38,17.40
2018,08,10,01,39,17.40
2018,08,10,01,40,17.50
2018,08,10,01,41,17.50
2018,08,10,01,42,17.60
2018,08,10,01,43,17.60
2018,08,10,01,44,17.60
2018,08,10,01,45,17.70
2018,08,10,01,46,17.80
2018,08,10,01,47,17.90
2018,08,10,01,48,18.00
2018,08,10,01,49,18.10
2018,08,10,01,50,18.20
2018,08,10,01,51,18.30
2018,08,10,01,52,18.30
2018,08,10,01,53,18.40
2018,08,10,01,54,18.50
2018,08,10,01,55,18.50
2018,08,10,01,56,18.50
2018,08,10,01,57,18.60
2018,08,10,01,58,18.60
2018,08,10,01,59,18.60
2018,08,10,02,00,18.60
2018,08,10,02,01,18.60
2018,08,10,02,02,18.70
2018,08,10,02,03,18.70
2018,08,10,02,04,18.70
2018,08,10,02,05,18.70
2018,08,10,02,06,18.70
2018,08,10,02,07,18.70
2018,08,10,02,08,18.70
2018,08,10,02,09,18.70
2018,08,10,02,10,18.70
2018,08,10,02,11,18.70
2018,08,10,02,12,18.60
2018,08,10,02,13,18.60
2018,08,10,02,14,18.60
2018,08,10,02,15,18.60
2018,08,10,02,16,18.50
2018,08,10,02,17,18.50
2018,08,10,02,18,18.40
2018,08,10,02,19,18.40
2018,08,10,02,20,18.40
2018,08,10,02,21,18.40
2018,08,10,02,22,18.40
2018,08,10,02,23,18.40
2018,08,10,02,24,18.30
2018,08,10,02,25,18.30
2018,08,10,02,26,18.30
2018,08,10,02,27,18.20
2018,08,10,02,28,18.20
2018,08,10,02,29,18.20
2018,08,10,02,30,18.10
2018,08,10,02,31,18.10
2018,08,10,02,32,18.00
2018,08,10,02,33,18.00
2018,08,10,02,34,17.90
2018,08,10,02,35,17.90
2018,08,10,02,36,17.90
2018,08,10,02,37,17.80
2018,08,10,02,38,17.80
2018,08,10,02,39,17.80
2018,08,10,02,40,17.70
2018,08,10,02,41,17.70
2018,08,10,02,42,17.60
2018,08,10,02,43,17.60
2018,08,10,02,44,17.50
2018,08,10,02,45,17.50
2018,08,10,02,46,17.50
2018,08,10,02,47,17.50
2018,08,10,02,48,17.50
2018,08,10,02,49,17.50
2018,08,10,02,50,17.50
2018,08,10,02,51,17.40
2018,08,10,02,52,17.40
2018,08,10,02,53,17.40
2018,08,10,02,54,17.40
2018,08,10,02,55,17.30
2018,08,10,02,56,17.30
2018,08,10,02,57,17.30
2018,08,10,02,58,17.20
2018,08,10,02,59,17.20
2018,08,10,03,00,17.10
2018,08,10,03,01,17.10
2018,08,10,03,02,17.00
2018,08,10,03,03,16.90
2018,08,10,03,04,16.90
2018,08,10,03,05,16.90
2018,08,10,03,06,16.90
2018,08,10,03,07,16.80
2018,08,10,03,08,16.80
2018,08,10,03,09,16.80
2018,08,10,03,10,16.80
2018,08,10,03,11,16.80
2018,08,10,03,12,16.80
2018,08,10,03,13,16.80
2018,08,10,03,14,16.80
2018,08,10,03,15,16.80
2018,08,10,03,16,16.80
2018,08,10,03,17,16.80
2018,08,10,03,18,16.80
2018,08,10,03,19,16.80
2018,08,10,03,20,16.80
2018,08,10,03,21,16.80
2018,08,10,03,22,16.80
2018,08,10,03,23,16.80
2018,08,10,03,24,16.80
2018,08,10,03,25,16.80
2018,08,10,03,26,16.80
2018,08,10,03,27,16.80
2018,08,10,03,28,16.80
2018,08,10,03,29,16.80
2018,08,10,03,30,16.70
2018,08,10,03,31,16.70
2018,08,10,03,32,16.70
2018,08,10,03,33,16.70
2018,08,10,03,34,16.70
2018,08,10,03,35,16.70
2018,08,10,03,36,16.70
2018,08,10,03,37,16.70
2018,08,10,03,38,16.70
2018,08,10,03,39,16.70
2018,08,10,03,40,16.70
2018,08,10,03,41,16.70
2018,08,10,03,42,16.70
2018,08,10,03,43,16.70
2018,08,10,03,44,16.60
2018,08,10,03,45,16.60
2018,08,10,03,46,16.50
2018,08,10,03,47,16.50
2018,08,10,03,48,16.40
2018,08,10,03,49,16.40
2018,08,10,03,50,16.30
2018,08,10,03,51,16.20
2018,08,10,03,52,16.20
2018,08,10,03,53,16.10
2018,08,10,03,54,16.10
2018,08,10,03,55,16.00
2018,08,10,03,56,16.00
2018,08,10,03,57,15.90
2018,08,10,03,58,15.90
2018,08,10,03,59,15.90
2018,08,10,04,00,15.90
2018,08,10,04,01,15.90
2018,08,10,04,02,15.80
2018,08,10,04,03,15.80
2018,08,10,04,04,15.80
2018,08,10,04,05,15.80
2018,08,10,04,06,15.80
2018,08,10,04,07,15.80
2018,08,10,04,08,15.90
2018,08,10,04,09,15.90
2018,08,10,04,10,15.90
2018,08,10,04,11,15.90
2018,08,10,04,12,15.90
2018,08,10,04,13,16.00
2018,08,10,04,14,16.00
2018,08,10,04,15,16.00
2018,08,10,04,16,16.10
2018,08,10,04,17,16.10
2018,08,10,04,18,16.10
2018,08,10,04,19,16.10
2018,08,10,04,20,16.10
2018,08,10,04,21,16.00
2018,08,10,04,22,16.00
2018,08,10,04,23,16.00
2018,08,10,04,24,16.00
2018,08,10,04,25,16.00
2018,08,10,04,26,16.00
2018,08,10,04,27,16.00
2018,08,10,04,28,16.00
2018,08,10,04,29,16.00
2018,08,10,04,30,16.00
2018,08,10,04,31,16.00
2018,08,10,04,32,16.00
2018,08,10,04,33,15.90
2018,08,10,04,34,15.90
2018,08,10,04,35,15.90
2018,08,10,04,36,15.90
2018,08,10,04,37,15.90
2018,08,10,04,38,15.90
2018,08,10,04,39,15.90
2018,08,10,04,40,15.90
2018,08,10,04,41,15.90
2018,08,10,04,42,16.00
2018,08,10,04,43,16.00
2018,08,10,04,44,16.00
2018,08,10,04,45,16.10
2018,08,10,04,46,16.10
2018,08,10,04,47,16.20
2018,08,10,04,48,16.20
2018,08,10,04,49,16.20
2018,08,10,04,50,16.30
2018,08,10,04,51,16.30
2018,08,10,04,52,16.30
2018,08,10,04,53,16.30
2018,08,10,04,54,16.30
2018,08,10,04,55,16.40
2018,08,10,04,56,16.40
2018,08,10,04,57,16.40
2018,08,10,04,58,16.40
2018,08,10,04,59,16.40
2018,08,10,05,00,16.40
2018,08,10,05,01,16.40
2018,08,10,05,02,16.40
2018,08,10,05,03,16.40
2018,08,10,05,04,16.40
2018,08,10,05,05,16.40
2018,08,10,05,06,16.50
2018,08,10,05,07,16.50
2018,08,10,05,08,16.60
2018,08,10,05,09,16.60
2018,08,10,05,10,16.60
2018,08,10,05,11,16.60
2018,08,10,05,12,16.60
2018,08,10,05,13,16.70
2018,08,10,05,14,16.70
2018,08,10,05,15,16.70
2018,08,10,05,16,16.70
2018,08,10,05,17,16.80
2018,08,10,05,18,16.80
2018,08,10,05,19,16.80
2018,08,10,05,20,16.80
2018,08,10,05,21,16.80
2018,08,10,05,22,16.90
2018,08,10,05,23,16.90
2018,08,10,05,24,16.90
2018,08,10,05,25,16.90
2018,08,10,05,26,16.90
2018,08,10,05,27,16.90
2018,08,10,05,28,16.90
2018,08,10,05,29,16.90
2018,08,10,05,30,16.80
2018,08,10,05,31,16.80
2018,08,10,05,32,16.80
2018,08,10,05,33,16.80
2018,08,10,05,34,16.80
2018,08,10,05,35,16.80
2018,08,10,05,36,16.80
2018,08,10,05,37,16.80
2018,08,10,05,38,16.70
2018,08,10,05,39,16.70
2018,08,10,05,40,16.70
2018,08,10,05,41,16.70
2018,08,10,05,42,16.60
2018,08,10,05,43,16.60
2018,08,10,05,44,16.60
2018,08,10,05,45,16.50
2018,08,10,05,46,16.50
2018,08,10,05,47,16.50
2018,08,10,05,48,16.40
2018,08,10,05,49,16.40
2018,08,10,05,50,16.40
2018,08,10,05,51,16.40
2018,08,10,05,52,16.30
2018,08,10,05,53,16.30
2018,08,10,05,54,16.30
2018,08,10,05,55,16.30
2018,08,10,05,56,16.30
2018,08,10,05,57,16.20
2018,08,10,05,58,16.20
2018,08,10,05,59,16.20
2018,08,10,06,00,16.10
2018,08,10,06,01,16.10
2018,08,10,06,02,16.10
2018,08,10,06,03,16.10
2018,08,10,06,04,16.10
2018,08,10,06,05,16.10
2018,08,10,06,06,16.10
2018,08,10,06,07,16.10
2018,08,10,06,08,16.00
2018,08,10,06,09,16.00
2018,08,10,06,10,16.00
2018,08,10,06,11,15.90
2018,08,10,06,12,15.90
2018,08,10,06,13,15.90
2018,08,10,06,14,15.90
2018,08,10,06,15,15.90
2018,08,10,06,16,15.90
2018,08,10,06,17,15.90
2018,08,10,06,18,15.90
2018,08,10,06,19,15.90
2018,08,10,06,20,15.90
2018,08,10,06,21,15.90
2018,08,10,06,22,15.90
2018,08,10,06,23,15.90
2018,08,10,06,24,15.90
2018,08,10,06,25,15.90
2018,08,10,06,26,15.90
2018,08,10,06,27,15.90
2018,08,10,06,28,15.90
2018,08,10,06,29,15.90
2018,08,10,06,30,15.90
2018,08,10,06,31,16.00
2018,08,10,06,32,16.00
2018,08,10,06,33,16.00
2018,08,10,06,34,16.00
2018,08,10,06,35,16.10
2018,08,10,06,36,16.10
2018,08,10,06,37,16.10
2018,08,10,06,38,16.20
2018,08,10,06,39,16.30
2018,08,10,06,40,16.40
2018,08,10,06,41,16.40
2018,08,10,06,42,16.50
2018,08,10,06,43,16.60
2018,08,10,06,44,16.70
2018,08,10,06,45,16.70
2018,08,10,06,46,16.80
2018,08,10,06,47,16.80
2018,08,10,06,48,16.80
2018,08,10,06,49,16.80
2018,08,10,06,50,16.80
2018,08,10,06,51,16.80
2018,08,10,06,52,16.90
2018,08,10,06,53,16.90
2018,08,10,06,54,16.90
2018,08,10,06,55,17.00
2018,08,10,06,56,17.00
2018,08,10,06,57,17.00
2018,08,10,06,58,17.10
2018,08,10,06,59,17.10
2018,08,10,07,00,17.10
2018,08,10,07,01,17.10
2018,08,10,07,02,17.20
2018,08,10,07,03,17.20
2018,08,10,07,04,17.20
2018,08,10,07,05,17.20
2018,08,10,07,06,17.30
2018,08,10,07,07,17.30
2018,08,10,07,08,17.30
2018,08,10,07,09,17.30
2018,08,10,07,10,17.30
2018,08,10,07,11,17.30
2018,08,10,07,12,17.40
2018,08,10,07,13,17.40
2018,08,10,07,14,17.40
2018,08,10,07,15,17.40
2018,08,10,07,16,17.40
2018,08,10,07,17,17.40
2018,08,10,07,18,17.50
2018,08,10,07,19,17.50
2018,08,10,07,20,17.60
2018,08,10,07,21,17.70
2018,08,10,07,22,17.70
2018,08,10,07,23,17.70
2018,08,10,07,24,17.70
2018,08,10,07,25,17.80
2018,08,10,07,26,17.80
2018,08,10,07,27,17.80
2018,08,10,07,28,17.80
2018,08,10,07,29,17.80
2018,08,10,07,30,17.80
2018,08,10,07,31,17.80
2018,08,10,07,32,17.80
2018,08,10,07,33,17.90
2018,08,10,07,34,17.90
2018,08,10,07,35,17.90
2018,08,10,07,36,17.90
2018,08,10,07,37,18.00
2018,08,10,07,38,18.00
2018,08,10,07,39,18.10
2018,08,10,07,40,18.10
2018,08,10,07,41,18.10
2018,08,10,07,42,18.20
2018,08,10,07,43,18.20
2018,08,10,07,44,18.20
2018,08,10,07,45,18.30
2018,08,10,07,46,18.30
2018,08,10,07,47,18.40
2018,08,10,07,48,18.40
2018,08,10,07,49,18.50
2018,08,10,07,50,18.50
2018,08,10,07,51,18.60
2018,08,10,07,52,18.60
2018,08,10,07,53,18.70
2018,08,10,07,54,18.70
2018,08,10,07,55,18.80
2018,08,10,07,56,18.80
2018,08,10,07,57,19.00
2018,08,10,07,58,19.00
2018,08,10,07,59,19.10
2018,08,10,08,00,19.20
2018,08,10,08,01,19.20
2018,08,10,08,02,19.30
2018,08,10,08,03,19.30
2018,08,10,08,04,19.30
2018,08,10,08,05,19.40
2018,08,10,08,06,19.40
2018,08,10,08,07,19.50
2018,08,10,08,08,19.50
2018,08,10,08,09,19.60
2018,08,10,08,10,19.60
2018,08,10,08,11,19.60
2018,08,10,08,12,19.50
2018,08,10,08,13,19.50
2018,08,10,08,14,19.40
2018,08,10,08,15,19.40
2018,08,10,08,16,19.30
2018,08,10,08,17,19.20
2018,08,10,08,18,19.20
2018,08,10,08,19,19.10
2018,08,10,08,20,19.00
2018,08,10,08,21,19.00
2018,08,10,08,22,19.00
2018,08,10,08,23,18.90
2018,08,10,08,24,19.00
2018,08,10,08,25,19.00
2018,08,10,08,26,19.00
2018,08,10,08,27,19.10
2018,08,10,08,28,19.10
2018,08,10,08,29,19.10
2018,08,10,08,30,19.20
2018,08,10,08,31,19.20
2018,08,10,08,32,19.30
2018,08,10,08,33,19.30
2018,08,10,08,34,19.30
2018,08,10,08,35,19.30
2018,08,10,08,36,19.30
2018,08,10,08,37,19.30
2018,08,10,08,38,19.30
2018,08,10,08,39,19.30
2018,08,10,08,40,19.30
2018,08,10,08,41,19.40
2018,08,10,08,42,19.40
2018,08,10,08,43,19.40
2018,08,10,08,44,19.50
2018,08,10,08,45,19.50
2018,08,10,08,46,19.50
2018,08,10,08,47,19.50
2018,08,10,08,48,19.60
2018,08,10,08,49,19.60
2018,08,10,08,50,19.60
2018,08,10,08,51,19.60
2018,08,10,08,52,19.60
2018,08,10,08,53,19.60
2018,08,10,08,54,19.70
2018,08,10,08,55,19.70
2018,08,10,08,56,19.70
2018,08,10,08,57,19.70
2018,08,10,08,58,19.70
2018,08,10,08,59,19.80
2018,08,10,09,00,19.80
2018,08,10,09,01,19.80
2018,08,10,09,02,19.90
2018,08,10,09,03,19.90
2018,08,10,09,04,20.00
2018,08,10,09,05,20.00
2018,08,10,09,06,20.00
2018,08,10,09,07,20.10
2018,08,10,09,08,20.10
2018,08,10,09,09,20.10
2018,08,10,09,10,20.20
2018,08,10,09,11,20.20
2018,08,10,09,12,20.30
2018,08,10,09,13,20.40
2018,08,10,09,14,20.40
2018,08,10,09,15,20.50
2018,08,10,09,16,20.60
2018,08,10,09,17,20.70
2018,08,10,09,18,20.70
2018,08,10,09,19,20.80
2018,08,10,09,20,20.80
2018,08,10,09,21,20.90
2018,08,10,09,22,20.90
2018,08,10,09,23,20.90
2018,08,10,09,24,21.00
2018,08,10,09,25,21.00
2018,08,10,09,26,21.00
2018,08,10,09,27,21.00
2018,08,10,09,28,21.10
2018,08,10,09,29,21.10
2018,08,10,09,30,21.10
2018,08,10,09,31,21.20
2018,08,10,09,32,21.30
2018,08,10,09,33,21.30
2018,08,10,09,34,21.40
2018,08,10,09,35,21.50
2018,08,10,09,36,21.50
2018,08,10,09,37,21.60
2018,08,10,09,38,21.60
2018,08,10,09,39,21.70
2018,08,10,09,40,21.70
2018,08,10,09,41,21.70
2018,08,10,09,42,21.70
2018,08,10,09,43,21.80
2018,08,10,09,44,21.80
2018,08,10,09,45,21.80
2018,08,10,09,46,21.90
2018,08,10,09,47,21.90
2018,08,10,09,48,21.90
2018,08,10,09,49,21.90
2018,08,10,09,50,21.90
2018,08,10,09,51,21.90
2018,08,10,09,52,21.90
2018,08,10,09,53,21.90
2018,08,10,09,54,21.90
2018,08,10,09,55,21.80
2018,08,10,09,56,21.80
2018,08,10,09,57,21.80
2018,08,10,09,58,21.80
2018,08,10,09,59,21.80
2018,08,10,10,00,21.80
2018,08,10,10,01,21.70
2018,08,10,10,02,21.70
2018,08,10,10,03,21.70
2018,08,10,10,04,21.70
2018,08,10,10,05,21.70
2018,08,10,10,06,21.60
2018,08,10,10,07,21.60
2018,08,10,10,08,21.60
2018,08,10,10,09,21.50
2018,08,10,10,10,21.40
2018,08,10,10,11,21.40
2018,08,10,10,12,21.30
2018,08,10,10,13,21.20
2018,08,10,10,14,21.20
2018,08,10,10,15,21.20
2018,08,10,10,16,21.10
2018,08,10,10,17,21.10
2018,08,10,10,18,21.00
2018,08,10,10,19,21.00
2018,08,10,10,20,20.90
2018,08,10,10,21,20.80
2018,08,10,10,22,20.70
2018,08,10,10,23,20.60
2018,08,10,10,24,20.50
2018,08,10,10,25,20.50
2018,08,10,10,26,20.40
2018,08,10,10,27,20.50
2018,08,10,10,28,20.50
2018,08,10,10,29,20.50
2018,08,10,10,30,20.60
2018,08,10,10,31,20.70
2018,08,10,10,32,20.80
2018,08,10,10,33,20.90
2018,08,10,10,34,21.00
2018,08,10,10,35,21.10
2018,08,10,10,36,21.20
2018,08,10,10,37,21.30
2018,08,10,10,38,21.30
2018,08,10,10,39,21.30
2018,08,10,10,40,21.30
2018,08,10,10,41,21.30
2018,08,10,10,42,21.30
2018,08,10,10,43,21.40
2018,08,10,10,44,21.40
2018,08,10,10,45,21.40
2018,08,10,10,46,21.40
2018,08,10,10,47,21.30
2018,08,10,10,48,21.30
2018,08,10,10,49,21.20
2018,08,10,10,50,21.10
2018,08,10,10,51,21.00
2018,08,10,10,52,20.90
2018,08,10,10,53,20.80
2018,08,10,10,54,20.70
2018,08,10,10,55,20.60
2018,08,10,10,56,20.40
2018,08,10,10,57,20.30
2018,08,10,10,58,20.30
2018,08,10,10,59,20.20
2018,08,10,11,00,20.20
2018,08,10,11,01,20.20
2018,08,10,11,02,20.20
2018,08,10,11,03,20.20
2018,08,10,11,04,20.20
2018,08,10,11,05,20.10
2018,08,10,11,06,20.00
2018,08,10,11,07,20.00
2018,08,10,11,08,19.90
2018,08,10,11,09,19.80
2018,08,10,11,10,19.80
2018,08,10,11,11,19.80
2018,08,10,11,12,19.80
2018,08,10,11,13,19.80
2018,08,10,11,14,19.70
2018,08,10,11,15,19.60
2018,08,10,11,16,19.50
2018,08,10,11,17,19.40
2018,08,10,11,18,19.30
2018,08,10,11,19,19.20
2018,08,10,11,20,19.20
2018,08,10,11,21,19.10
2018,08,10,11,22,19.00
2018,08,10,11,23,18.90
2018,08,10,11,24,18.80
2018,08,10,11,25,18.70
2018,08,10,11,26,18.60
2018,08,10,11,27,18.50
2018,08,10,11,28,18.40
2018,08,10,11,29,18.20
2018,08,10,11,30,18.20
2018,08,10,11,31,18.20
2018,08,10,11,32,18.20
2018,08,10,11,33,18.30
2018,08,10,11,34,18.40
2018,08,10,11,35,18.50
2018,08,10,11,36,18.60
2018,08,10,11,37,18.60
2018,08,10,11,38,18.70
2018,08,10,11,39,18.70
2018,08,10,11,40,18.70
2018,08,10,11,41,18.70
2018,08,10,11,42,18.70
2018,08,10,11,43,18.70
2018,08,10,11,44,18.70
2018,08,10,11,45,18.70
2018,08,10,11,46,18.70
2018,08,10,11,47,18.70
2018,08,10,11,48,18.80
2018,08,10,11,49,18.80
2018,08,10,11,50,18.90
2018,08,10,11,51,19.00
2018,08,10,11,52,19.00
2018,08,10,11,53,19.10
2018,08,10,11,54,19.20
2018,08,10,11,55,19.20
2018,08,10,11,56,19.20
2018,08,10,11,57,19.30
2018,08,10,11,58,19.30
2018,08,10,11,59,19.30
2018,08,10,12,00,19.40
2018,08,10,12,01,19.50
2018,08,10,12,02,19.50
2018,08,10,12,03,19.60
2018,08,10,12,04,19.70
2018,08,10,12,05,19.70
2018,08,10,12,06,19.80
2018,08,10,12,07,19.80
2018,08,10,12,08,19.90
2018,08,10,12,09,19.90
2018,08,10,12,10,20.10
2018,08,10,12,11,20.20
2018,08,10,12,12,20.30
2018,08,10,12,13,20.50
2018,08,10,12,14,20.50
2018,08,10,12,15,20.60
2018,08,10,12,16,20.60
2018,08,10,12,17,20.60
2018,08,10,12,18,20.60
2018,08,10,12,19,20.60
2018,08,10,12,20,20.60
2018,08,10,12,21,20.60
2018,08,10,12,22,20.60
2018,08,10,12,23,20.60
2018,08,10,12,24,20.70
2018,08,10,12,25,20.80
2018,08,10,12,26,20.80
2018,08,10,12,27,20.90
2018,08,10,12,28,21.00
2018,08,10,12,29,21.20
2018,08,10,12,30,21.30
2018,08,10,12,31,21.40
2018,08,10,12,32,21.50
2018,08,10,12,33,21.50
2018,08,10,12,34,21.60
2018,08,10,12,35,21.60
2018,08,10,12,36,21.70
2018,08,10,12,37,21.70
2018,08,10,12,38,21.80
2018,08,10,12,39,21.80
2018,08,10,12,40,21.80
2018,08,10,12,41,21.80
2018,08,10,12,42,21.80
2018,08,10,12,43,21.80
2018,08,10,12,44,21.90
2018,08,10,12,45,22.00
2018,08,10,12,46,22.10
2018,08,10,12,47,22.10
2018,08,10,12,48,22.10
2018,08,10,12,49,22.10
2018,08,10,12,50,22.10
2018,08,10,12,51,22.20
2018,08,10,12,52,22.20
2018,08,10,12,53,22.20
2018,08,10,12,54,22.20
2018,08,10,12,55,22.30
2018,08,10,12,56,22.30
2018,08,10,12,57,22.30
2018,08,10,12,58,22.30
2018,08,10,12,59,22.30
2018,08,10,13,00,22.30
2018,08,10,13,01,22.30
2018,08,10,13,02,22.30
2018,08,10,13,03,22.40
2018,08,10,13,04,22.50
2018,08,10,13,05,22.50
2018,08,10,13,06,22.60
2018,08,10,13,07,22.70
2018,08,10,13,08,22.80
2018,08,10,13,09,22.90
2018,08,10,13,10,22.90
2018,08,10,13,11,23.00
2018,08,10,13,12,22.90
2018,08,10,13,13,22.90
2018,08,10,13,14,22.80
2018,08,10,13,15,22.70
2018,08,10,13,16,22.60
2018,08,10,13,17,22.60
2018,08,10,13,18,22.50
2018,08,10,13,19,22.50
2018,08,10,13,20,22.50
2018,08,10,13,21,22.40
2018,08,10,13,22,22.20
2018,08,10,13,23,22.10
2018,08,10,13,24,21.90
2018,08,10,13,25,21.80
2018,08,10,13,26,21.80
2018,08,10,13,27,21.60
2018,08,10,13,28,21.50
2018,08,10,13,29,21.30
2018,08,10,13,30,21.20
2018,08,10,13,31,21.10
2018,08,10,13,32,21.00
2018,08,10,13,33,20.90
2018,08,10,13,34,20.90
2018,08,10,13,35,20.80
2018,08,10,13,36,20.70
2018,08,10,13,37,20.60
2018,08,10,13,38,20.60
2018,08,10,13,39,20.60
2018,08,10,13,40,20.60
2018,08,10,13,41,20.70
2018,08,10,13,42,20.80
2018,08,10,13,43,20.90
2018,08,10,13,44,21.00
2018,08,10,13,45,21.10
2018,08,10,13,46,21.20
2018,08,10,13,47,21.30
2018,08,10,13,48,21.40
2018,08,10,13,49,21.50
2018,08,10,13,50,21.60
2018,08,10,13,51,21.60
2018,08,10,13,52,21.50
2018,08,10,13,53,21.50
2018,08,10,13,54,21.50
2018,08,10,13,55,21.40
2018,08,10,13,56,21.50
2018,08,10,13,57,21.50
2018,08,10,13,58,21.50
2018,08,10,13,59,21.50
2018,08,10,14,00,21.60
2018,08,10,14,01,21.60
2018,08,10,14,02,21.60
2018,08,10,14,03,21.70
2018,08,10,14,04,21.80
2018,08,10,14,05,21.80
2018,08,10,14,06,21.90
2018,08,10,14,07,21.90
2018,08,10,14,08,21.90
2018,08,10,14,09,22.00
2018,08,10,14,10,22.10
2018,08,10,14,11,22.20
2018,08,10,14,12,22.40
2018,08,10,14,13,22.50
2018,08,10,14,14,22.70
2018,08,10,14,15,22.80
2018,08,10,14,16,22.90
2018,08,10,14,17,23.10
2018,08,10,14,18,23.20
2018,08,10,14,19,23.30
2018,08,10,14,20,23.50
2018,08,10,14,21,23.60
2018,08,10,14,22,23.60
2018,08,10,14,23,23.60
2018,08,10,14,24,23.50
2018,08,10,14,25,23.40
2018,08,10,14,26,23.40
2018,08,10,14,27,23.30
2018,08,10,14,28,23.30
2018,08,10,14,29,23.30
2018,08,10,14,30,23.40
2018,08,10,14,31,23.40
2018,08,10,14,32,23.40
2018,08,10,14,33,23.40
2018,08,10,14,34,23.40
2018,08,10,14,35,23.30
2018,08,10,14,36,23.30
2018,08,10,14,37,23.40
2018,08,10,14,38,23.50
2018,08,10,14,39,23.70
2018,08,10,14,40,23.80
2018,08,10,14,41,23.80
2018,08,10,14,42,23.70
2018,08,10,14,43,23.50
2018,08,10,14,44,23.20
2018,08,10,14,45,23.00
2018,08,10,14,46,22.90
2018,08,10,14,47,22.80
2018,08,10,14,48,22.70
2018,08,10,14,49,22.70
2018,08,10,14,50,22.70
2018,08,10,14,51,22.90
2018,08,10,14,52,22.90
2018,08,10,14,53,23.00
2018,08,10,14,54,23.10
2018,08,10,14,55,23.20
2018,08,10,14,56,23.30
2018,08,10,14,57,23.30
2018,08,10,14,58,23.30
2018,08,10,14,59,23.30
2018,08,10,15,00,23.30
2018,08,10,15,01,23.30
2018,08,10,15,02,23.20
2018,08,10,15,03,23.10
2018,08,10,15,04,23.10
2018,08,10,15,05,23.10
2018,08,10,15,06,23.00
2018,08,10,15,07,22.90
2018,08,10,15,08,23.00
2018,08,10,15,09,23.50
2018,08,10,15,10,24.00
2018,08,10,15,11,24.40
2018,08,10,15,12,24.90
2018,08,10,15,13,25.30
2018,08,10,15,14,25.80
2018,08,10,15,15,26.30
2018,08,10,15,16,26.70
2018,08,10,15,17,27.00
2018,08,10,15,18,27.30
2018,08,10,15,19,27.50
2018,08,10,15,20,27.70
2018,08,10,15,21,27.80
2018,08,10,15,22,27.90
2018,08,10,15,23,28.00
2018,08,10,15,24,28.10
2018,08,10,15,25,28.20
2018,08,10,15,26,28.30
2018,08,10,15,27,28.40
2018,08,10,15,28,28.50
2018,08,10,15,29,28.50
2018,08,10,15,30,28.50
2018,08,10,15,31,28.50
2018,08,10,15,32,28.60
2018,08,10,15,33,28.60
2018,08,10,15,34,28.60
2018,08,10,15,35,28.60
2018,08,10,15,36,28.60
2018,08,10,15,37,28.70
2018,08,10,15,38,28.70
2018,08,10,15,39,28.80
2018,08,10,15,40,28.80
2018,08,10,15,41,28.80
2018,08,10,15,42,28.80
2018,08,10,15,43,28.70
2018,08,10,15,44,28.70
2018,08,10,15,45,28.60
2018,08,10,15,46,28.60
2018,08,10,15,47,28.50
2018,08,10,15,48,28.50
2018,08,10,15,49,28.50
2018,08,10,15,50,28.50
2018,08,10,15,51,28.50
2018,08,10,15,52,28.40
2018,08,10,15,53,28.40
2018,08,10,15,54,28.40
2018,08,10,15,55,28.50
2018,08,10,15,56,28.60
2018,08,10,15,57,28.50
2018,08,10,15,58,28.40
2018,08,10,15,59,28.30
2018,08,10,16,00,28.20
2018,08,10,16,01,28.20
2018,08,10,16,02,28.20
2018,08,10,16,03,28.10
2018,08,10,16,04,28.10
2018,08,10,16,05,28.00
2018,08,10,16,06,27.90
2018,08,10,16,07,27.90
2018,08,10,16,08,27.80
2018,08,10,16,09,27.70
2018,08,10,16,10,27.60
2018,08,10,16,11,27.60
2018,08,10,16,12,27.60
2018,08,10,16,13,27.70
2018,08,10,16,14,27.70
2018,08,10,16,15,27.70
2018,08,10,16,16,27.70
2018,08,10,16,17,27.70
2018,08,10,16,18,27.60
2018,08,10,16,19,27.50
2018,08,10,16,20,27.40
2018,08,10,16,21,27.40
2018,08,10,16,22,27.50
2018,08,10,16,23,27.50
2018,08,10,16,24,27.60
2018,08,10,16,25,27.60
2018,08,10,16,26,27.50
2018,08,10,16,27,27.40
2018,08,10,16,28,27.30
2018,08,10,16,29,27.20
2018,08,10,16,30,27.20
2018,08,10,16,31,27.10
2018,08,10,16,32,27.10
2018,08,10,16,33,27.10
2018,08,10,16,34,27.10
2018,08,10,16,35,27.10
2018,08,10,16,36,27.10
2018,08,10,16,37,27.10
2018,08,10,16,38,27.00
2018,08,10,16,39,27.00
2018,08,10,16,40,26.90
2018,08,10,16,41,26.90
2018,08,10,16,42,26.70
2018,08,10,16,43,26.60
2018,08,10,16,44,26.50
2018,08,10,16,45,26.40
2018,08,10,16,46,26.40
2018,08,10,16,47,26.30
2018,08,10,16,48,26.20
2018,08,10,16,49,26.10
2018,08,10,16,50,26.10
2018,08,10,16,51,26.00
2018,08,10,16,52,26.00
2018,08,10,16,53,26.00
2018,08,10,16,54,25.90
2018,08,10,16,55,25.80
2018,08,10,16,56,25.80
2018,08,10,16,57,25.80
2018,08,10,16,58,25.80
2018,08,10,16,59,25.80
2018,08,10,17,00,25.80
2018,08,10,17,01,25.80
2018,08,10,17,02,25.80
2018,08,10,17,03,25.70
2018,08,10,17,04,25.70
2018,08,10,17,05,25.70
2018,08,10,17,06,25.70
2018,08,10,17,07,25.70
2018,08,10,17,08,25.60
2018,08,10,17,09,25.60
2018,08,10,17,10,25.60
2018,08,10,17,11,25.60
2018,08,10,17,12,25.60
2018,08,10,17,13,25.60
2018,08,10,17,14,25.70
2018,08,10,17,15,25.70
2018,08,10,17,16,25.80
2018,08,10,17,17,25.70
2018,08,10,17,18,25.60
2018,08,10,17,19,25.50